Starlink 33841

operational
NORAD ID: 63771 Int'l Des: 2025-089 Owner: SPXS Country: US Constellation: starlink
LEOCIRCULAR

Über Starlink 33841

Beschreibung wird geladen...

Live-Position

3D-Globus wird geladen...

Nächste Überflüge

Höhenverlauf

Altitude vs Time

uPlot chart will show altitude changes over time

Zweizeiliger Elementsatz

1 63771U 25089W 25353.81707846 .00015302 00000-0 56418-3 0 9995
2 63771 43.0011 136.1730 0001946 273.1823 86.8806 15.27593928 36693
Epoch: 19. Dez. 2025 • Age: 17 hours

Aktueller Status

Höhe 494.3 km
Geschwindigkeit 7.62 km/s
Subsatellitenpunkt -41.21°S, 105.75°E
Startdatum 29. Apr. 2025
Alter 0.6 years
Typ internet

Technische Details

Klassifizierung Payload
Masse 575.00 kg
Trockenmasse 530.00 kg
Gesamtmasse 575.00 kg
Länge 0.30 m
Durchmesser 4.10 m
Spannweite 29.00 m
Form Box + pan
Hersteller SPXS
Bus-Typ Starlink V2MO
Phasenstatus In Orbit
Besitzer/Staat SPXS/US

Große Konstellationen

Loading constellations...